Location: Newark
(35.0167°N, 135.7667°E)
Time: 07:27:43
(UTC+00:00)

N. Korean satellite - Pass Details

Date: 01 November 2019
Orbit: 456 x 506 km, 97.2° (Epoch: 18 November)

Event Time Altitude Azimuth Distance (km) Brightness Sun altitude
Rises 20:08:47 0° 25° (NNE) 2,603 10.5 -14.7°
Reaches altitude 10° 20:11:08 10° 39° (NE) 1,718 9.8 -14.2°
Maximum altitude 20:14:16 26° 96° (E) 1,034 9.2 -13.6°
Drops below altitude 10° 20:17:23 10° 154° (SSE) 1,712 9.8 -12.9°
Sets 20:19:42 0° 167° (SSE) 2,591 10.6 -12.5°
